Location: Nelson
(41.2830°S, 173.2830°E)
Time: 10:53:12
(UTC+13:00)

Radarsat Rocket - Pass Details

Date: 06 October 2021
Orbit: 933 x 1492 km, 100.6° (Epoch: 27 October)

Event Time Altitude Azimuth Distance (km) Brightness Sun altitude
Rises 20:02:04 0° 164° (SSE) 4,101 7.2 -5.3°
Reaches altitude 10° 20:04:49 10° 162° (SSE) 3,054 6.5 -5.8°
Maximum altitude 20:11:40 80° 74° (ENE) 1,068 4.1 -7.1°
Drops below altitude 10° 20:17:44 10° 347° (NNW) 2,718 6.3 -8.2°
Sets 20:20:04 0° 346° (NNW) 3,623 7.0 -8.6°
